Regional Weather Roundup
Issued by NWS

Home | Current Version | Previous Version | Graphics & Text | Print | Product List | Glossary On
Versions: 1 2 3 4 5 6 7 8 9 10 11 12 13 14 15 16 17 18 19 20 21 22 23 24 25 26 27 28 29 30 31 32 33 34 35 36 37 38 39 40 41 42 43 44 45 46 47 48 49 50
000
ASUS43 KLSX 260857
RWRMO

WEATHER SUMMARY FOR MISSOURI
NATIONAL WEATHER SERVICE SPRINGFIELD MO
400 AM CDT THU APR 26 2018

NOTE: "FAIR" INDICATES FEW OR NO CLOUDS BELOW 12,000 FEET WITH NO
       SIGNIFICANT WEATHER AND/OR OBSTRUCTIONS TO VISIBILITY.
       CURRENT SKY AND/OR WEATHER CONDITIONS ARE NOT AVAILABLE FOR
       CHILLICOTHE AND FARMINGTON.

MOZ001>031-035>038-043-044-053-054-261000-
...NORTHERN AND WESTERN MISSOURI...

CITY           SKY/WX    TMP DP  RH WIND       PRES   REMARKS
KANSAS CTY INT PTCLDY    42  40  92 W7        29.98S
LEE`S SUMMIT   FOG       43  43 100 W3        29.98S VSB 1/4
ST JOSEPH      CLOUDY    36  36 100 CALM      29.99S
CHILLICOTHE      N/A     38  38 100 CALM      29.98S

$$
MOZ066>068-077>081-088>096-101>105-261000-
...SOUTHWEST MISSOURI...

CITY           SKY/WX    TMP DP  RH WIND       PRES   REMARKS
SPRINGFIELD    CLOUDY    50  47  89 NE6       29.92F
JOPLIN         CLOUDY    50  48  93 NW8       29.98R FOG

$$
MOZ032>034-039>042-045>050-055>058-069>072-261000-
...CENTRAL MISSOURI...

CITY           SKY/WX    TMP DP  RH WIND       PRES   REMARKS
COLUMBIA       NOT AVBL
JEFFERSON CITY PTCLDY    49  48  97 NW5       29.94F FOG
ROLLA          CLOUDY    48  47  96 N8        29.93S FOG
SEDALIA        PTCLDY    46  46 100 NW6       29.98R FOG
WARRENSBURG    FOG       43  41  93 CALM      29.98S VSB 1/2
OSAGE BEACH    FOG       46  46 100 CALM      29.94F VSB 1/2

$$
MOZ051-052-059>065-261000-
...EAST CENTRAL MISSOURI...

CITY           SKY/WX    TMP DP  RH WIND       PRES   REMARKS
ST LOUIS INTL  CLOUDY    53  45  74 N6        29.91F

$$
MOZ072>076-082>087-097>100-106>115-261000-
...SOUTH CENTRAL AND SOUTHEAST MISSOURI...

CITY           SKY/WX    TMP DP  RH WIND       PRES   REMARKS
CAPE GIRARDEAU CLOUDY    56  52  86 N9        29.86F
POPLAR BLUFF   CLOUDY    55  52  89 N10       29.86F
WEST PLAINS    CLOUDY    51  49  92 N6        29.91S

$$




USA.gov is the U.S. government's official web portal to all federal, state and local government web resources and services.